Weather History for Pompano Beach, FL

Change the Weather History Date:

Wednesday, September 18, 2013

  Actual Average Record
Temperature  
Mean Temperature 78 °F -  
Max Temperature 84 °F 90 °F 94 °F (1982)
Min Temperature 73 °F 74 °F 68 °F (1985)
Cooling Degree Days 14    
Growing Degree Days 28 (Base 50)    
Moisture  
Dew Point 74 °F    
Average Humidity 86    
Maximum Humidity 100    
Minimum Humidity 72    
Precipitation  
Precipitation 4.01 in - - ()
Sea Level Pressure  
Sea Level Pressure 29.99 in    
Wind  
Wind Speed 6 mph (ENE)    
Max Wind Speed 13 mph    
Max Gust Speed 18 mph    
Visibility 7 miles    
Events Fog , Rain , Thunderstorm    
Averages and records for this station are not official NWS values.
T = Trace of Precipitation, MM = Missing Value Source: NWS Daily Summary

Daily Weather History Graph

Daily Weather History Graph

Search for Another Location

Airport:

Trip Planner

Search our weather history database for the weather conditions in past years. The results will help you decide how hot, cold, wet, or windy it might be!

Date:

Astronomy

Sep. 18, 2013 Rise Set
Actual Time 7:07 AM EDT 7:21 PM EDT
Civil Twilight 6:44 AM EDT 7:44 PM EDT
Nautical Twilight 6:17 AM EDT 8:11 PM EDT
Astronomical Twilight 5:50 AM EDT 8:38 PM EDT
Moon 6:44 PM EDT (9/18) 6:09 AM EDT (9/18)
Length of Visible Light 12h 59m
Length of Day
12h 13m
Waxing Gibbous, 99% of the Moon is Illuminated
Sep 18
Waxing Gibbous
Sep 19
Full
Sep 26
Last Quarter
Oct 4
New
Oct 11
First Quarter

Hourly Weather History & Observations

Time (EDT) Temp. Heat Index Dew Point Humidity Pressure Visibility Wind Dir Wind Speed Gust Speed Precip Events Conditions
12:53 AM 81.0 °F 86.7 °F 75.0 °F 82% 29.97 in 10.0 mi East 5.8 mph - N/A   Scattered Clouds
1:53 AM 81.0 °F 86.2 °F 73.9 °F 79% 29.96 in 10.0 mi ENE 4.6 mph - N/A   Partly Cloudy
2:53 AM 81.0 °F 85.8 °F 73.0 °F 77% 29.94 in 10.0 mi East 5.8 mph - N/A   Clear
3:53 AM 81.0 °F 86.2 °F 73.9 °F 79% 29.93 in 10.0 mi East 3.5 mph - N/A   Partly Cloudy
4:53 AM 80.1 °F 84.5 °F 73.9 °F 81% 29.93 in 10.0 mi NE 3.5 mph - N/A   Clear
5:53 AM 79.0 °F - 75.0 °F 88% 29.94 in 10.0 mi Calm Calm - N/A   Scattered Clouds
6:53 AM 78.1 °F - 73.0 °F 84% 29.96 in 10.0 mi SW 4.6 mph - N/A   Mostly Cloudy
7:43 AM 75.2 °F - 73.4 °F 94% 29.97 in 6.0 mi NNW 11.5 mph - 0.11 in Rain Light Rain
7:51 AM 75.2 °F - 73.4 °F 94% 29.97 in 1.2 mi ENE 12.7 mph - 0.47 in Rain Heavy Rain
7:53 AM 75.9 °F - 73.0 °F 91% 29.98 in 0.5 mi East 8.1 mph 18.4 mph 0.71 in Fog , Rain Heavy Rain
8:00 AM 75.2 °F - 71.6 °F 89% 29.97 in 0.2 mi Calm Calm - 0.56 in Fog , Rain , Thunderstorm Heavy Thunderstorms and Rain
8:12 AM 75.2 °F - 71.6 °F 89% 29.99 in 1.0 mi NNW 6.9 mph - 1.01 in Rain , Thunderstorm Heavy Thunderstorms and Rain
8:15 AM 75.2 °F - 73.4 °F 94% 29.99 in 0.8 mi NW 5.8 mph - 1.22 in Rain , Thunderstorm Heavy Thunderstorms and Rain
8:28 AM 73.4 °F - 73.4 °F 100% 29.99 in 0.5 mi WSW 9.2 mph - 2.02 in Fog , Rain , Thunderstorm Heavy Thunderstorms and Rain
8:36 AM 73.4 °F - 73.4 °F 100% 30.00 in 1.0 mi West 8.1 mph - 2.22 in Rain , Thunderstorm Heavy Rain
8:39 AM 73.4 °F - 73.4 °F 100% 30.00 in 0.8 mi West 4.6 mph - 2.28 in Rain Heavy Rain
8:47 AM 73.4 °F - 73.4 °F 100% 30.01 in 0.5 mi Calm Calm - 2.55 in Fog , Rain , Thunderstorm Heavy Thunderstorms and Rain
8:53 AM 73.9 °F - 73.0 °F 97% 30.00 in 0.2 mi SSE 4.6 mph - 2.94 in Fog , Rain , Thunderstorm Heavy Thunderstorms and Rain
9:02 AM 73.4 °F - 73.4 °F 100% 30.00 in 0.8 mi South 6.9 mph - 0.17 in Rain Heavy Rain
9:06 AM 73.4 °F - 73.4 °F 100% 30.00 in 2.0 mi SSE 6.9 mph - 0.18 in Rain Heavy Rain
9:10 AM 73.4 °F - 73.4 °F 100% 30.00 in 3.0 mi SSE 4.6 mph - 0.19 in Rain , Thunderstorm Rain
9:22 AM 73.4 °F - 73.4 °F 100% 30.00 in 4.0 mi East 3.5 mph - 0.23 in Rain , Thunderstorm Rain
9:38 AM 75.2 °F - 73.4 °F 94% 30.01 in 9.0 mi South 4.6 mph - 0.24 in Rain Light Rain
9:53 AM 75.0 °F - 73.0 °F 94% 30.01 in 5.0 mi Calm Calm - 0.27 in Rain Rain
10:53 AM 78.1 °F - 75.0 °F 90% 30.01 in 9.0 mi East 8.1 mph - 0.08 in Rain Light Rain
11:00 AM 78.8 °F - 75.2 °F 89% 30.01 in 10.0 mi East 6.9 mph - 0.01 in Rain Light Rain
11:29 AM 80.6 °F 86.2 °F 75.2 °F 84% 30.01 in 10.0 mi ENE 9.2 mph - 0.01 in   Scattered Clouds
11:53 AM 81.0 °F 86.2 °F 73.9 °F 79% 30.00 in 10.0 mi ENE 6.9 mph - 0.01 in   Clear
12:53 PM 82.0 °F 88.6 °F 75.0 °F 79% 30.00 in 10.0 mi East 6.9 mph - N/A   Partly Cloudy
1:53 PM 84.0 °F 91.9 °F 75.0 °F 74% 29.99 in 10.0 mi East 6.9 mph - N/A   Clear
2:53 PM 84.0 °F 92.6 °F 75.9 °F 76% 29.97 in 10.0 mi ENE 8.1 mph - N/A   Scattered Clouds
3:53 PM 82.9 °F 90.2 °F 75.0 °F 77% 29.96 in 10.0 mi ENE 6.9 mph - N/A   Scattered Clouds
4:53 PM 82.9 °F 90.2 °F 75.0 °F 77% 29.96 in 10.0 mi ENE 6.9 mph - N/A   Scattered Clouds
5:53 PM 82.9 °F 88.8 °F 73.0 °F 72% 29.96 in 10.0 mi ENE 9.2 mph - N/A   Mostly Cloudy
6:53 PM 82.0 °F 87.9 °F 73.9 °F 76% 29.98 in 10.0 mi NE 5.8 mph - 0.00 in   Mostly Cloudy
7:53 PM 82.0 °F 87.9 °F 73.9 °F 76% 29.98 in 10.0 mi ENE 4.6 mph - N/A   Mostly Cloudy
8:53 PM 82.0 °F 87.4 °F 73.0 °F 74% 30.01 in 10.0 mi Calm Calm - N/A   Partly Cloudy
9:37 PM 80.6 °F 85.4 °F 73.4 °F 79% 30.02 in 10.0 mi Calm Calm - N/A   Overcast
9:45 PM 80.6 °F 85.4 °F 73.4 °F 79% 30.02 in 10.0 mi West 12.7 mph 16.1 mph N/A   Mostly Cloudy
9:53 PM 78.1 °F - 72.0 °F 81% 30.03 in 10.0 mi West 11.5 mph - N/A   Mostly Cloudy
10:01 PM 78.8 °F - 71.6 °F 78% 30.03 in 10.0 mi NW 9.2 mph - N/A   Mostly Cloudy
10:11 PM 78.8 °F - 71.6 °F 78% 30.03 in 10.0 mi WNW 10.4 mph - N/A   Mostly Cloudy
10:53 PM 75.9 °F - 72.0 °F 87% 30.02 in 10.0 mi WNW 5.8 mph - 0.00 in   Scattered Clouds
11:53 PM 75.9 °F - 73.0 °F 91% 30.00 in 10.0 mi Calm Calm - N/A   Clear